Time,TemperatureF,DewpointF,PressureIn,WindDirection,WindDirectionDegrees,WindSpeedMPH,WindSpeedGustMPH,Humidity,HourlyPrecipIn,Conditions,Clouds,dailyrainin,SoftwareType,DateUTC
2013-01-26 00:00:00,62.6,54.9,29.65,SE,135,0.0,0.0,76,0.00,,,0.00,WUHU21623XXSP,2013-01-26 05:00:00,
2013-01-26 00:01:00,62.6,54.9,29.65,SE,135,0.0,0.0,76,0.00,,,0.00,WUHU21623XXSP,2013-01-26 05:01:00,
2013-01-26 00:03:00,62.4,55.1,29.65,SE,135,0.0,0.0,77,0.00,,,0.00,WUHU21623XXSP,2013-01-26 05:03:00,
2013-01-26 00:08:00,62.4,55.1,29.65,SE,135,0.0,0.0,77,0.00,,,0.00,WUHU21623XXSP,2013-01-26 05:08:00,
2013-01-26 00:13:00,62.4,55.1,29.65,SE,135,0.0,0.0,77,0.00,,,0.00,WUHU21623XXSP,2013-01-26 05:13:00,
2013-01-26 00:18:00,62.4,55.1,29.65,SE,135,0.0,0.0,77,0.00,,,0.00,WUHU21623XXSP,2013-01-26 05:18:00,
2013-01-26 00:23:00,62.4,55.1,29.65,SE,135,0.0,0.0,77,0.00,,,0.00,WUHU21623XXSP,2013-01-26 05:23:00,
2013-01-26 00:28:00,62.2,54.9,29.65,SE,135,0.0,0.0,77,0.00,,,0.00,WUHU21623XXSP,2013-01-26 05:28:00,
2013-01-26 00:33:00,62.2,54.9,29.66,SE,135,0.0,0.0,77,0.00,,,0.00,WUHU21623XXSP,2013-01-26 05:33:00,
2013-01-26 00:38:00,62.1,54.7,29.65,SE,135,0.0,0.0,77,0.00,,,0.00,WUHU21623XXSP,2013-01-26 05:38:00,
2013-01-26 00:43:00,62.1,54.7,29.66,SE,135,0.0,0.0,77,0.00,,,0.00,WUHU21623XXSP,2013-01-26 05:43:00,
2013-01-26 00:48:00,62.1,54.7,29.66,SE,135,0.0,0.0,77,0.00,,,0.00,WUHU21623XXSP,2013-01-26 05:48:00,
2013-01-26 00:53:00,62.1,54.7,29.65,SE,135,0.0,0.0,77,0.00,,,0.00,WUHU21623XXSP,2013-01-26 05:53:00,
2013-01-26 00:58:00,62.1,54.7,29.65,SE,135,0.0,0.0,77,0.00,,,0.00,WUHU21623XXSP,2013-01-26 05:58:00,
2013-01-26 01:03:00,61.9,54.6,29.65,SE,135,0.0,0.0,77,0.00,,,0.00,WUHU21623XXSP,2013-01-26 06:03:00,
2013-01-26 01:08:00,61.9,54.6,29.66,SE,135,0.0,0.0,77,0.00,,,0.00,WUHU21623XXSP,2013-01-26 06:08:00,
2013-01-26 01:13:00,61.7,54.8,29.66,SE,135,0.0,0.0,78,0.00,,,0.00,WUHU21623XXSP,2013-01-26 06:13:00,
2013-01-26 01:18:00,61.7,54.8,29.66,SE,135,0.0,0.0,78,0.00,,,0.00,WUHU21623XXSP,2013-01-26 06:18:00,
2013-01-26 01:23:00,61.7,54.8,29.66,SE,135,0.0,0.0,78,0.00,,,0.00,WUHU21623XXSP,2013-01-26 06:23:00,
2013-01-26 01:28:00,61.5,54.6,29.65,SE,135,0.0,0.0,78,0.00,,,0.00,WUHU21623XXSP,2013-01-26 06:28:00,
2013-01-26 01:33:00,61.5,55.0,29.65,SE,135,0.0,0.0,79,0.00,,,0.00,WUHU21623XXSP,2013-01-26 06:33:00,
2013-01-26 01:38:00,61.5,55.0,29.65,SE,135,0.0,0.0,79,0.00,,,0.00,WUHU21623XXSP,2013-01-26 06:38:00,
2013-01-26 01:43:00,61.3,54.8,29.65,SE,135,0.0,0.0,79,0.00,,,0.00,WUHU21623XXSP,2013-01-26 06:43:00,
2013-01-26 01:48:00,61.3,54.8,29.65,SE,135,0.0,0.0,79,0.00,,,0.00,WUHU21623XXSP,2013-01-26 06:48:00,
2013-01-26 01:53:00,61.3,54.8,29.65,SE,135,0.0,0.0,79,0.00,,,0.00,WUHU21623XXSP,2013-01-26 06:53:00,
2013-01-26 01:58:00,61.3,55.0,29.65,SE,135,0.0,0.0,79,0.00,,,0.00,WUHU21623XXSP,2013-01-26 06:58:00,
2013-01-26 02:03:00,61.3,54.8,29.65,SE,135,0.0,0.0,79,0.00,,,0.00,WUHU21623XXSP,2013-01-26 07:03:00,
2013-01-26 02:08:00,61.3,54.8,29.65,SE,135,0.0,0.0,79,0.00,,,0.00,WUHU21623XXSP,2013-01-26 07:08:00,
2013-01-26 02:13:00,61.3,54.8,29.65,SE,135,0.0,0.0,79,0.00,,,0.00,WUHU21623XXSP,2013-01-26 07:13:00,
2013-01-26 02:18:00,61.2,54.6,29.64,SE,135,0.0,0.0,79,0.00,,,0.00,WUHU21623XXSP,2013-01-26 07:18:00,
2013-01-26 02:23:00,61.2,54.6,29.64,SE,135,0.0,0.0,79,0.00,,,0.00,WUHU21623XXSP,2013-01-26 07:23:00,
2013-01-26 02:28:00,61.0,54.5,29.64,SE,135,0.0,0.0,79,0.00,,,0.00,WUHU21623XXSP,2013-01-26 07:28:00,
2013-01-26 02:33:00,61.0,54.5,29.64,SE,135,0.0,0.0,79,0.00,,,0.00,WUHU21623XXSP,2013-01-26 07:33:00,
2013-01-26 02:38:00,61.0,54.5,29.63,SE,135,0.0,0.0,79,0.00,,,0.00,WUHU21623XXSP,2013-01-26 07:38:00,
2013-01-26 02:43:00,60.6,54.5,29.64,SE,135,0.0,0.0,80,0.00,,,0.00,WUHU21623XXSP,2013-01-26 07:43:00,
2013-01-26 02:48:00,60.6,54.5,29.64,SE,135,0.0,0.0,80,0.00,,,0.00,WUHU21623XXSP,2013-01-26 07:48:00,
2013-01-26 02:53:00,60.6,54.5,29.63,SE,135,0.0,0.0,80,0.00,,,0.00,WUHU21623XXSP,2013-01-26 07:53:00,
2013-01-26 02:58:00,60.4,54.3,29.63,SE,135,0.0,0.0,80,0.00,,,0.00,WUHU21623XXSP,2013-01-26 07:58:00,
2013-01-26 03:03:00,60.4,54.3,29.64,SE,135,0.0,0.0,80,0.00,,,0.00,WUHU21623XXSP,2013-01-26 08:03:00,
2013-01-26 03:08:00,60.4,54.3,29.64,SE,135,0.0,0.0,80,0.00,,,0.00,WUHU21623XXSP,2013-01-26 08:08:00,
2013-01-26 03:13:00,60.1,54.0,29.64,SE,135,0.0,0.0,80,0.00,,,0.00,WUHU21623XXSP,2013-01-26 08:13:00,
2013-01-26 03:18:00,60.1,54.0,29.64,SE,135,0.0,0.0,80,0.00,,,0.00,WUHU21623XXSP,2013-01-26 08:18:00,
2013-01-26 03:23:00,60.1,54.3,29.64,SE,135,0.0,0.0,81,0.00,,,0.00,WUHU21623XXSP,2013-01-26 08:23:00,
2013-01-26 03:28:00,59.9,54.1,29.64,SE,135,0.0,0.0,81,0.00,,,0.00,WUHU21623XXSP,2013-01-26 08:28:00,
2013-01-26 03:33:00,59.9,54.1,29.64,SE,135,0.0,0.0,81,0.00,,,0.00,WUHU21623XXSP,2013-01-26 08:33:00,
2013-01-26 03:38:00,60.1,54.3,29.63,SE,135,0.0,0.0,81,0.00,,,0.00,WUHU21623XXSP,2013-01-26 08:38:00,
2013-01-26 03:43:00,60.1,54.3,29.64,SE,135,0.0,0.0,81,0.00,,,0.00,WUHU21623XXSP,2013-01-26 08:43:00,
2013-01-26 03:48:00,59.9,54.1,29.63,SE,135,0.0,0.0,81,0.00,,,0.00,WUHU21623XXSP,2013-01-26 08:48:00,
2013-01-26 03:53:00,59.9,54.1,29.63,SE,135,0.0,0.0,81,0.00,,,0.00,WUHU21623XXSP,2013-01-26 08:53:00,
2013-01-26 03:58:00,60.1,54.3,29.63,SE,135,0.0,0.0,81,0.00,,,0.00,WUHU21623XXSP,2013-01-26 08:58:00,
2013-01-26 04:03:00,59.9,54.1,29.63,SE,135,0.0,0.0,81,0.00,,,0.00,WUHU21623XXSP,2013-01-26 09:03:00,
2013-01-26 04:08:00,59.9,54.1,29.64,SE,135,0.0,0.0,81,0.00,,,0.00,WUHU21623XXSP,2013-01-26 09:08:00,
2013-01-26 04:13:00,59.9,54.1,29.63,SE,135,0.0,0.0,81,0.00,,,0.00,WUHU21623XXSP,2013-01-26 09:13:00,
2013-01-26 04:18:00,59.7,54.2,29.63,SE,135,0.0,0.0,82,0.00,,,0.00,WUHU21623XXSP,2013-01-26 09:18:00,
2013-01-26 04:23:00,59.7,54.2,29.63,SE,135,0.0,0.0,82,0.00,,,0.00,WUHU21623XXSP,2013-01-26 09:23:00,
2013-01-26 04:28:00,59.7,54.6,29.64,NNE,22,0.0,0.0,83,0.00,,,0.00,WUHU21623XXSP,2013-01-26 09:28:00,
2013-01-26 04:33:00,59.9,54.8,29.64,North,0,0.0,0.0,83,0.00,,,0.00,WUHU21623XXSP,2013-01-26 09:33:00,
2013-01-26 04:38:00,60.1,55.3,29.64,North,0,0.0,0.0,84,0.00,,,0.00,WUHU21623XXSP,2013-01-26 09:38:00,
2013-01-26 04:43:00,60.1,54.9,29.63,North,0,0.0,0.0,83,0.00,,,0.00,WUHU21623XXSP,2013-01-26 09:43:00,
2013-01-26 04:48:00,60.1,54.9,29.64,North,0,0.0,0.0,83,0.00,,,0.00,WUHU21623XXSP,2013-01-26 09:48:00,
2013-01-26 04:53:00,60.1,54.9,29.64,North,0,0.0,0.0,83,0.00,,,0.00,WUHU21623XXSP,2013-01-26 09:53:00,
2013-01-26 04:58:00,59.9,54.8,29.64,North,0,0.0,0.0,83,0.00,,,0.00,WUHU21623XXSP,2013-01-26 09:58:00,
2013-01-26 05:03:00,59.9,54.8,29.64,North,0,0.0,0.0,83,0.00,,,0.00,WUHU21623XXSP,2013-01-26 10:03:00,
2013-01-26 05:08:00,59.7,54.6,29.64,North,0,0.0,0.0,83,0.00,,,0.00,WUHU21623XXSP,2013-01-26 10:08:00,
2013-01-26 05:13:00,59.7,54.6,29.64,North,0,0.0,0.0,83,0.00,,,0.00,WUHU21623XXSP,2013-01-26 10:13:00,
2013-01-26 05:18:00,59.5,54.4,29.64,North,0,0.0,0.0,83,0.00,,,0.00,WUHU21623XXSP,2013-01-26 10:18:00,
2013-01-26 05:23:00,59.5,54.4,29.64,North,0,0.0,0.0,83,0.00,,,0.00,WUHU21623XXSP,2013-01-26 10:23:00,
2013-01-26 05:28:00,59.4,54.2,29.64,North,0,0.0,0.0,83,0.00,,,0.00,WUHU21623XXSP,2013-01-26 10:28:00,
2013-01-26 05:33:00,59.4,54.5,29.65,North,0,0.0,0.0,84,0.00,,,0.00,WUHU21623XXSP,2013-01-26 10:33:00,
2013-01-26 05:38:00,59.5,54.7,29.64,NNW,337,0.0,0.0,84,0.00,,,0.00,WUHU21623XXSP,2013-01-26 10:38:00,
2013-01-26 05:43:00,59.7,54.9,29.65,NNE,22,0.0,0.0,84,0.00,,,0.00,WUHU21623XXSP,2013-01-26 10:43:00,
2013-01-26 05:48:00,59.7,54.9,29.65,NNE,22,0.0,0.0,84,0.00,,,0.00,WUHU21623XXSP,2013-01-26 10:48:00,
2013-01-26 05:53:00,59.7,54.9,29.65,NNE,22,0.0,0.0,84,0.00,,,0.00,WUHU21623XXSP,2013-01-26 10:53:00,
2013-01-26 05:58:00,59.7,54.9,29.65,NNE,22,0.0,0.0,84,0.00,,,0.00,WUHU21623XXSP,2013-01-26 10:58:00,
2013-01-26 06:03:00,59.5,54.7,29.65,NNE,22,0.0,0.0,84,0.00,,,0.00,WUHU21623XXSP,2013-01-26 11:03:00,
2013-01-26 06:08:00,59.5,54.7,29.65,NNE,22,0.0,0.0,84,0.00,,,0.00,WUHU21623XXSP,2013-01-26 11:08:00,
2013-01-26 06:13:00,59.5,54.7,29.65,NNE,22,0.0,0.0,84,0.00,,,0.00,WUHU21623XXSP,2013-01-26 11:13:00,
2013-01-26 06:18:00,59.5,54.7,29.65,NNE,22,0.0,0.0,84,0.00,,,0.00,WUHU21623XXSP,2013-01-26 11:18:00,
2013-01-26 06:23:00,59.4,54.5,29.65,NNE,22,0.0,0.0,84,0.00,,,0.00,WUHU21623XXSP,2013-01-26 11:23:00,
2013-01-26 06:28:00,59.5,54.4,29.65,NNE,22,0.0,0.0,83,0.00,,,0.00,WUHU21623XXSP,2013-01-26 11:28:00,
2013-01-26 06:33:00,59.5,54.4,29.65,NNE,22,0.0,0.0,83,0.00,,,0.00,WUHU21623XXSP,2013-01-26 11:33:00,
2013-01-26 06:38:00,59.5,54.4,29.65,North,0,0.0,0.0,83,0.00,,,0.00,WUHU21623XXSP,2013-01-26 11:38:00,
2013-01-26 06:43:00,59.5,54.1,29.66,NNW,337,0.0,0.0,82,0.00,,,0.00,WUHU21623XXSP,2013-01-26 11:43:00,
2013-01-26 06:48:00,59.5,54.1,29.66,North,0,0.0,0.0,82,0.00,,,0.00,WUHU21623XXSP,2013-01-26 11:48:00,
2013-01-26 06:53:00,59.5,53.7,29.66,North,0,0.0,0.0,81,0.00,,,0.00,WUHU21623XXSP,2013-01-26 11:53:00,
2013-01-26 06:58:00,59.5,53.4,29.66,NNE,22,0.0,0.0,80,0.00,,,0.00,WUHU21623XXSP,2013-01-26 11:58:00,
2013-01-26 07:03:00,59.5,53.4,29.66,NNE,22,0.0,0.0,80,0.00,,,0.00,WUHU21623XXSP,2013-01-26 12:03:00,
2013-01-26 07:08:00,59.5,53.4,29.66,North,0,0.0,0.0,80,0.00,,,0.00,WUHU21623XXSP,2013-01-26 12:08:00,
2013-01-26 07:13:00,59.5,53.1,29.67,North,0,0.0,0.0,79,0.00,,,0.00,WUHU21623XXSP,2013-01-26 12:13:00,
2013-01-26 07:18:00,59.5,53.1,29.67,NNE,22,0.0,0.0,79,0.00,,,0.00,WUHU21623XXSP,2013-01-26 12:18:00,
2013-01-26 07:23:00,59.4,52.9,29.67,North,0,0.0,0.0,79,0.00,,,0.00,WUHU21623XXSP,2013-01-26 12:23:00,
2013-01-26 07:28:00,59.4,52.5,29.67,North,0,0.0,0.0,78,0.00,,,0.00,WUHU21623XXSP,2013-01-26 12:28:00,
2013-01-26 07:33:00,59.5,52.7,29.67,NNW,337,0.0,0.0,78,0.00,,,0.00,WUHU21623XXSP,2013-01-26 12:33:00,
2013-01-26 07:38:00,59.5,52.3,29.67,NNW,337,0.0,0.0,77,0.00,,,0.00,WUHU21623XXSP,2013-01-26 12:38:00,
2013-01-26 07:43:00,59.9,52.3,29.67,NNE,22,0.0,0.0,76,0.00,,,0.00,WUHU21623XXSP,2013-01-26 12:43:00,
2013-01-26 07:48:00,60.1,52.2,29.68,NNE,22,0.0,0.0,75,0.00,,,0.00,WUHU21623XXSP,2013-01-26 12:48:00,
2013-01-26 07:53:00,60.1,51.8,29.68,North,0,0.0,0.0,74,0.00,,,0.00,WUHU21623XXSP,2013-01-26 12:53:00,
2013-01-26 07:58:00,60.6,52.0,29.68,North,0,0.0,0.0,73,0.00,,,0.00,WUHU21623XXSP,2013-01-26 12:58:00,
2013-01-26 08:03:00,61.0,52.0,29.68,NW,315,0.0,0.0,72,0.00,,,0.00,WUHU21623XXSP,2013-01-26 13:03:00,
2013-01-26 08:08:00,61.2,51.8,29.68,North,0,0.0,0.0,71,0.00,,,0.00,WUHU21623XXSP,2013-01-26 13:08:00,
2013-01-26 08:13:00,61.5,51.7,29.68,NNE,22,0.0,0.0,70,0.00,,,0.00,WUHU21623XXSP,2013-01-26 13:13:00,
2013-01-26 08:18:00,61.7,51.5,29.68,NNE,22,0.0,0.0,69,0.00,,,0.00,WUHU21623XXSP,2013-01-26 13:18:00,
2013-01-26 08:23:00,62.2,51.5,29.68,NE,45,0.0,0.0,68,0.00,,,0.00,WUHU21623XXSP,2013-01-26 13:23:00,
2013-01-26 08:28:00,62.4,50.9,29.68,NNE,22,0.0,0.0,66,0.00,,,0.00,WUHU21623XXSP,2013-01-26 13:28:00,
2013-01-26 08:33:00,62.8,50.8,29.68,NE,45,0.0,0.0,65,0.00,,,0.00,WUHU21623XXSP,2013-01-26 13:33:00,
2013-01-26 08:38:00,63.1,51.5,29.69,NNW,337,0.0,0.0,66,0.00,,,0.00,WUHU21623XXSP,2013-01-26 13:38:00,
2013-01-26 08:43:00,63.7,51.2,29.69,NNW,337,0.0,0.0,64,0.00,,,0.00,WUHU21623XXSP,2013-01-26 13:43:00,
2013-01-26 08:48:00,63.9,51.0,29.69,NNE,22,0.0,0.0,63,0.00,,,0.00,WUHU21623XXSP,2013-01-26 13:48:00,
2013-01-26 08:53:00,64.6,51.2,29.69,NNW,337,0.0,0.0,62,0.00,,,0.00,WUHU21623XXSP,2013-01-26 13:53:00,
2013-01-26 08:58:00,64.9,51.1,29.69,NNW,337,0.0,0.0,61,0.00,,,0.00,WUHU21623XXSP,2013-01-26 13:58:00,
2013-01-26 09:03:00,65.3,51.1,29.69,North,0,0.0,0.0,60,0.00,,,0.00,WUHU21623XXSP,2013-01-26 14:03:00,
2013-01-26 09:08:00,65.8,51.6,29.69,NNE,22,0.0,0.0,60,0.00,,,0.00,WUHU21623XXSP,2013-01-26 14:08:00,
2013-01-26 09:13:00,66.0,50.8,29.69,NNW,337,0.0,0.0,58,0.00,,,0.00,WUHU21623XXSP,2013-01-26 14:13:00,
2013-01-26 09:18:00,66.6,51.8,29.69,NNE,22,0.0,0.0,59,0.00,,,0.00,WUHU21623XXSP,2013-01-26 14:18:00,
2013-01-26 09:23:00,66.9,51.7,29.69,NNE,22,0.0,0.0,58,0.00,,,0.00,WUHU21623XXSP,2013-01-26 14:23:00,
2013-01-26 09:28:00,67.8,52.5,29.69,NNW,337,0.0,0.0,58,0.00,,,0.00,WUHU21623XXSP,2013-01-26 14:28:00,
2013-01-26 09:33:00,68.2,52.3,29.70,NE,45,0.0,0.0,57,0.00,,,0.00,WUHU21623XXSP,2013-01-26 14:33:00,
2013-01-26 09:38:00,68.4,52.5,29.70,North,0,0.0,0.0,57,0.00,,,0.00,WUHU21623XXSP,2013-01-26 14:38:00,
2013-01-26 09:43:00,68.5,52.2,29.70,North,0,0.0,0.0,56,0.00,,,0.00,WUHU21623XXSP,2013-01-26 14:43:00,
2013-01-26 09:48:00,69.1,52.7,29.70,NNE,22,0.0,0.0,56,0.00,,,0.00,WUHU21623XXSP,2013-01-26 14:48:00,
2013-01-26 09:53:00,69.4,52.5,29.70,ENE,67,0.0,0.0,55,0.00,,,0.00,WUHU21623XXSP,2013-01-26 14:53:00,
2013-01-26 09:58:00,70.0,53.5,29.70,NE,45,0.0,0.0,56,0.00,,,0.00,WUHU21623XXSP,2013-01-26 14:58:00,
2013-01-26 10:03:00,70.0,53.5,29.70,NNE,22,0.0,0.0,56,0.00,,,0.00,WUHU21623XXSP,2013-01-26 15:03:00,
2013-01-26 10:08:00,70.3,53.9,29.70,ENE,67,0.0,0.0,56,0.00,,,0.00,WUHU21623XXSP,2013-01-26 15:08:00,
2013-01-26 10:13:00,71.2,54.7,29.70,NNE,22,0.0,0.0,56,0.00,,,0.00,WUHU21623XXSP,2013-01-26 15:13:00,
2013-01-26 10:18:00,71.4,54.8,29.70,North,0,0.0,0.0,56,0.00,,,0.00,WUHU21623XXSP,2013-01-26 15:18:00,
2013-01-26 10:23:00,71.8,55.2,29.70,NNW,337,0.0,0.0,56,0.00,,,0.00,WUHU21623XXSP,2013-01-26 15:23:00,
2013-01-26 10:28:00,72.3,55.7,29.70,North,0,0.0,0.0,56,0.00,,,0.00,WUHU21623XXSP,2013-01-26 15:28:00,
2013-01-26 10:33:00,72.7,56.0,29.70,NNE,22,0.0,0.0,56,0.00,,,0.00,WUHU21623XXSP,2013-01-26 15:33:00,
2013-01-26 10:38:00,72.9,56.1,29.69,NNW,337,0.0,0.0,56,0.00,,,0.00,WUHU21623XXSP,2013-01-26 15:38:00,
2013-01-26 10:43:00,73.0,56.8,29.70,NW,315,0.0,0.0,57,0.00,,,0.00,WUHU21623XXSP,2013-01-26 15:43:00,
2013-01-26 10:48:00,73.2,56.5,29.70,NNE,22,0.0,0.0,56,0.00,,,0.00,WUHU21623XXSP,2013-01-26 15:48:00,
2013-01-26 10:53:00,73.6,56.8,29.70,North,0,0.0,0.0,56,0.00,,,0.00,WUHU21623XXSP,2013-01-26 15:53:00,
2013-01-26 10:58:00,73.9,57.2,29.70,North,0,0.0,0.0,56,0.00,,,0.00,WUHU21623XXSP,2013-01-26 15:58:00,
2013-01-26 11:03:00,73.9,57.2,29.70,North,0,0.0,0.0,56,0.00,,,0.00,WUHU21623XXSP,2013-01-26 16:03:00,
2013-01-26 11:08:00,74.1,56.8,29.69,NE,45,0.0,0.0,55,0.00,,,0.00,WUHU21623XXSP,2013-01-26 16:08:00,
2013-01-26 11:13:00,74.5,57.2,29.69,NW,315,0.0,0.0,55,0.00,,,0.00,WUHU21623XXSP,2013-01-26 16:13:00,
2013-01-26 11:18:00,74.8,57.6,29.69,NNE,22,0.0,0.0,55,0.00,,,0.00,WUHU21623XXSP,2013-01-26 16:18:00,
2013-01-26 11:23:00,75.4,57.6,29.68,NNE,22,0.0,0.0,54,0.00,,,0.00,WUHU21623XXSP,2013-01-26 16:23:00,
2013-01-26 11:28:00,75.6,57.7,29.68,North,0,0.0,0.0,54,0.00,,,0.00,WUHU21623XXSP,2013-01-26 16:28:00,
2013-01-26 11:33:00,75.7,57.9,29.68,North,0,0.0,0.0,54,0.00,,,0.00,WUHU21623XXSP,2013-01-26 16:33:00,
2013-01-26 11:38:00,76.3,58.4,29.68,NW,315,0.0,0.0,54,0.00,,,0.00,WUHU21623XXSP,2013-01-26 16:38:00,
2013-01-26 11:43:00,76.3,58.4,29.68,NNW,337,0.0,0.0,54,0.00,,,0.00,WUHU21623XXSP,2013-01-26 16:43:00,
2013-01-26 11:48:00,76.5,57.5,29.68,ENE,67,0.0,0.0,52,0.00,,,0.00,WUHU21623XXSP,2013-01-26 16:48:00,
2013-01-26 11:53:00,76.6,57.7,29.68,NE,45,0.0,0.0,52,0.00,,,0.00,WUHU21623XXSP,2013-01-26 16:53:00,
2013-01-26 11:58:00,77.0,58.5,29.67,North,0,0.0,0.0,53,0.00,,,0.00,WUHU21623XXSP,2013-01-26 16:58:00,
2013-01-26 12:03:00,77.2,58.2,29.67,North,0,0.0,0.0,52,0.00,,,0.00,WUHU21623XXSP,2013-01-26 17:03:00,
2013-01-26 12:08:00,77.5,58.0,29.66,NNE,22,0.0,0.0,51,0.00,,,0.00,WUHU21623XXSP,2013-01-26 17:08:00,
2013-01-26 12:13:00,77.5,57.5,29.66,East,90,0.0,0.0,50,0.00,,,0.00,WUHU21623XXSP,2013-01-26 17:13:00,
2013-01-26 12:18:00,77.7,57.7,29.66,NNE,22,0.0,0.0,50,0.00,,,0.00,WUHU21623XXSP,2013-01-26 17:18:00,
2013-01-26 12:23:00,78.6,59.0,29.66,North,0,0.0,0.0,51,0.00,,,0.00,WUHU21623XXSP,2013-01-26 17:23:00,
2013-01-26 12:28:00,78.6,59.0,29.66,North,0,0.0,0.0,50,0.00,,,0.00,WUHU21623XXSP,2013-01-26 17:28:00,
2013-01-26 12:33:00,79.2,58.4,29.65,NE,45,0.0,0.0,49,0.00,,,0.00,WUHU21623XXSP,2013-01-26 17:33:00,
2013-01-26 12:38:00,79.5,58.1,29.65,NNE,22,0.0,0.0,48,0.00,,,0.00,WUHU21623XXSP,2013-01-26 17:38:00,
2013-01-26 12:43:00,79.3,57.7,29.65,NE,45,0.0,0.0,48,0.00,,,0.00,WUHU21623XXSP,2013-01-26 17:43:00,
2013-01-26 12:48:00,79.0,57.6,29.65,NE,45,0.0,0.0,48,0.00,,,0.00,WUHU21623XXSP,2013-01-26 17:48:00,
2013-01-26 12:53:00,78.8,57.4,29.64,NNE,22,0.0,0.0,48,0.00,,,0.00,WUHU21623XXSP,2013-01-26 17:53:00,
2013-01-26 12:58:00,78.4,57.7,29.64,WSW,247,0.0,0.0,49,0.00,,,0.00,WUHU21623XXSP,2013-01-26 17:58:00,
2013-01-26 13:03:00,77.7,57.7,29.63,NE,45,0.0,0.0,50,0.00,,,0.00,WUHU21623XXSP,2013-01-26 18:03:00,
2013-01-26 13:08:00,76.3,57.4,29.63,SE,135,0.0,0.0,52,0.00,,,0.00,WUHU21623XXSP,2013-01-26 18:08:00,
2013-01-26 13:13:00,75.9,57.1,29.63,North,0,0.0,0.0,52,0.00,,,0.00,WUHU21623XXSP,2013-01-26 18:13:00,
2013-01-26 13:18:00,75.9,57.1,29.63,ENE,67,0.0,0.0,52,0.00,,,0.00,WUHU21623XXSP,2013-01-26 18:18:00,
2013-01-26 13:23:00,78.1,58.0,29.63,NNE,22,0.0,0.0,50,0.00,,,0.00,WUHU21623XXSP,2013-01-26 18:23:00,
2013-01-26 13:28:00,78.4,57.7,29.62,NE,45,0.0,0.0,49,0.00,,,0.00,WUHU21623XXSP,2013-01-26 18:28:00,
2013-01-26 13:33:00,79.0,58.2,29.62,NE,45,0.0,0.0,49,0.00,,,0.00,WUHU21623XXSP,2013-01-26 18:33:00,
2013-01-26 13:38:00,76.8,57.4,29.62,ESE,112,0.0,0.0,51,0.00,,,0.00,WUHU21623XXSP,2013-01-26 18:38:00,
2013-01-26 13:43:00,76.6,57.2,29.62,NE,45,0.0,0.0,51,0.00,,,0.00,WUHU21623XXSP,2013-01-26 18:43:00,
2013-01-26 13:48:00,76.6,57.7,29.62,ESE,112,0.0,0.0,52,0.00,,,0.00,WUHU21623XXSP,2013-01-26 18:48:00,
2013-01-26 13:53:00,78.4,57.7,29.62,ESE,112,0.0,0.0,49,0.00,,,0.00,WUHU21623XXSP,2013-01-26 18:53:00,
2013-01-26 13:58:00,78.6,58.5,29.62,ESE,112,0.0,0.0,50,0.00,,,0.00,WUHU21623XXSP,2013-01-26 18:58:00,
2013-01-26 14:03:00,78.6,57.9,29.62,NE,45,0.0,0.0,49,0.00,,,0.00,WUHU21623XXSP,2013-01-26 19:03:00,
2013-01-26 14:08:00,79.3,58.5,29.62,East,90,0.0,0.0,49,0.00,,,0.00,WUHU21623XXSP,2013-01-26 19:08:00,
2013-01-26 14:13:00,78.6,58.5,29.62,East,90,0.0,0.0,50,0.00,,,0.00,WUHU21623XXSP,2013-01-26 19:13:00,
2013-01-26 14:18:00,77.7,58.2,29.62,NE,45,0.0,0.0,51,0.00,,,0.00,WUHU21623XXSP,2013-01-26 19:18:00,
2013-01-26 14:23:00,76.6,58.2,29.62,NNE,22,0.0,0.0,53,0.00,,,0.00,WUHU21623XXSP,2013-01-26 19:23:00,
2013-01-26 14:28:00,75.9,58.6,29.61,ENE,67,0.0,0.0,55,0.00,,,0.00,WUHU21623XXSP,2013-01-26 19:28:00,
2013-01-26 14:33:00,77.4,58.9,29.61,NE,45,0.0,0.0,53,0.00,,,0.00,WUHU21623XXSP,2013-01-26 19:33:00,
2013-01-26 14:38:00,77.7,58.7,29.61,ENE,67,0.0,0.0,52,0.00,,,0.00,WUHU21623XXSP,2013-01-26 19:38:00,
2013-01-26 14:43:00,77.7,58.7,29.62,NNE,22,0.0,0.0,52,0.00,,,0.00,WUHU21623XXSP,2013-01-26 19:43:00,
2013-01-26 14:48:00,77.9,58.9,29.62,ENE,67,0.0,0.0,52,0.00,,,0.00,WUHU21623XXSP,2013-01-26 19:48:00,
2013-01-26 14:53:00,78.1,59.0,29.61,SE,135,0.0,0.0,52,0.00,,,0.00,WUHU21623XXSP,2013-01-26 19:53:00,
2013-01-26 14:58:00,78.6,59.0,29.61,ENE,67,0.0,0.0,51,0.00,,,0.00,WUHU21623XXSP,2013-01-26 19:58:00,
2013-01-26 15:03:00,78.6,59.0,29.61,ENE,67,0.0,0.0,51,0.00,,,0.00,WUHU21623XXSP,2013-01-26 20:03:00,
2013-01-26 15:08:00,78.1,58.5,29.61,ENE,67,0.0,0.0,51,0.00,,,0.00,WUHU21623XXSP,2013-01-26 20:08:00,
2013-01-26 15:13:00,78.1,59.0,29.61,ENE,67,0.0,0.0,52,0.00,,,0.00,WUHU21623XXSP,2013-01-26 20:13:00,
2013-01-26 15:18:00,77.5,58.0,29.61,NE,45,0.0,0.0,51,0.00,,,0.00,WUHU21623XXSP,2013-01-26 20:18:00,
2013-01-26 15:23:00,77.2,58.7,29.61,NE,45,0.0,0.0,53,0.00,,,0.00,WUHU21623XXSP,2013-01-26 20:23:00,
2013-01-26 15:28:00,76.8,58.4,29.61,East,90,0.0,0.0,53,0.00,,,0.00,WUHU21623XXSP,2013-01-26 20:28:00,
2013-01-26 15:33:00,76.6,58.7,29.61,NE,45,0.0,0.0,54,0.00,,,0.00,WUHU21623XXSP,2013-01-26 20:33:00,
2013-01-26 15:38:00,76.8,58.9,29.61,ENE,67,0.0,0.0,54,0.00,,,0.00,WUHU21623XXSP,2013-01-26 20:38:00,
2013-01-26 15:43:00,76.6,58.7,29.61,ENE,67,0.0,0.0,54,0.00,,,0.00,WUHU21623XXSP,2013-01-26 20:43:00,
2013-01-26 15:48:00,76.8,58.9,29.61,NE,45,0.0,0.0,54,0.00,,,0.00,WUHU21623XXSP,2013-01-26 20:48:00,
2013-01-26 15:53:00,76.3,58.9,29.61,NE,45,0.0,0.0,55,0.00,,,0.00,WUHU21623XXSP,2013-01-26 20:53:00,
2013-01-26 15:58:00,76.3,58.9,29.61,NE,45,0.0,0.0,55,0.00,,,0.00,WUHU21623XXSP,2013-01-26 20:58:00,
2013-01-26 16:03:00,76.3,58.9,29.61,ESE,112,0.0,0.0,55,0.00,,,0.00,WUHU21623XXSP,2013-01-26 21:03:00,
2013-01-26 16:08:00,75.6,58.2,29.61,NE,45,0.0,0.0,55,0.00,,,0.00,WUHU21623XXSP,2013-01-26 21:08:00,
2013-01-26 16:13:00,75.4,58.1,29.61,East,90,0.0,0.0,55,0.00,,,0.00,WUHU21623XXSP,2013-01-26 21:13:00,
2013-01-26 16:18:00,75.2,58.4,29.61,East,90,0.0,0.0,56,0.00,,,0.00,WUHU21623XXSP,2013-01-26 21:18:00,
2013-01-26 16:23:00,74.5,58.2,29.61,NE,45,0.0,0.0,57,0.00,,,0.00,WUHU21623XXSP,2013-01-26 21:23:00,
2013-01-26 16:28:00,74.8,58.6,29.61,East,90,0.0,0.0,57,0.00,,,0.00,WUHU21623XXSP,2013-01-26 21:28:00,
2013-01-26 16:33:00,75.0,58.7,29.61,NE,45,0.0,0.0,57,0.00,,,0.00,WUHU21623XXSP,2013-01-26 21:33:00,
2013-01-26 16:38:00,74.8,58.6,29.61,ESE,112,0.0,0.0,57,0.00,,,0.00,WUHU21623XXSP,2013-01-26 21:38:00,
2013-01-26 16:43:00,74.5,58.2,29.61,NE,45,0.0,0.0,57,0.00,,,0.00,WUHU21623XXSP,2013-01-26 21:43:00,
2013-01-26 16:48:00,74.3,58.5,29.62,NE,45,0.0,0.0,58,0.00,,,0.00,WUHU21623XXSP,2013-01-26 21:48:00,
2013-01-26 16:53:00,74.1,58.4,29.62,East,90,0.0,0.0,58,0.00,,,0.00,WUHU21623XXSP,2013-01-26 21:53:00,
2013-01-26 16:58:00,74.1,58.9,29.62,ESE,112,0.0,0.0,59,0.00,,,0.00,WUHU21623XXSP,2013-01-26 21:58:00,
2013-01-26 17:03:00,74.1,58.9,29.62,NE,45,0.0,0.0,59,0.00,,,0.00,WUHU21623XXSP,2013-01-26 22:03:00,
2013-01-26 17:08:00,73.4,58.6,29.62,East,90,0.0,0.0,60,0.00,,,0.00,WUHU21623XXSP,2013-01-26 22:08:00,
2013-01-26 17:13:00,73.0,58.3,29.62,ENE,67,0.0,0.0,60,0.00,,,0.00,WUHU21623XXSP,2013-01-26 22:13:00,
2013-01-26 17:18:00,73.0,58.7,29.62,SE,135,0.0,0.0,61,0.00,,,0.00,WUHU21623XXSP,2013-01-26 22:18:00,
2013-01-26 17:23:00,72.9,58.6,29.62,ENE,67,0.0,0.0,61,0.00,,,0.00,WUHU21623XXSP,2013-01-26 22:23:00,
2013-01-26 17:28:00,72.7,58.4,29.62,NE,45,0.0,0.0,61,0.00,,,0.00,WUHU21623XXSP,2013-01-26 22:28:00,
2013-01-26 17:33:00,72.3,58.5,29.63,East,90,0.0,0.0,62,0.00,,,0.00,WUHU21623XXSP,2013-01-26 22:33:00,
2013-01-26 17:38:00,72.3,58.5,29.62,East,90,0.0,0.0,62,0.00,,,0.00,WUHU21623XXSP,2013-01-26 22:38:00,
2013-01-26 17:43:00,72.0,58.2,29.62,NE,45,0.0,0.0,62,0.00,,,0.00,WUHU21623XXSP,2013-01-26 22:43:00,
2013-01-26 17:48:00,71.8,58.5,29.63,East,90,0.0,0.0,63,0.00,,,0.00,WUHU21623XXSP,2013-01-26 22:48:00,
2013-01-26 17:53:00,71.4,58.1,29.63,ENE,67,0.0,0.0,63,0.00,,,0.00,WUHU21623XXSP,2013-01-26 22:53:00,
2013-01-26 17:58:00,71.4,58.1,29.63,ESE,112,0.0,0.0,63,0.00,,,0.00,WUHU21623XXSP,2013-01-26 22:58:00,
2013-01-26 18:03:00,71.2,58.4,29.63,SE,135,0.0,0.0,64,0.00,,,0.00,WUHU21623XXSP,2013-01-26 23:03:00,
2013-01-26 18:08:00,71.1,58.2,29.63,ESE,112,0.0,0.0,64,0.00,,,0.00,WUHU21623XXSP,2013-01-26 23:08:00,
2013-01-26 18:13:00,70.9,58.1,29.63,ENE,67,0.0,0.0,64,0.00,,,0.00,WUHU21623XXSP,2013-01-26 23:13:00,
2013-01-26 18:18:00,70.5,58.2,29.63,ENE,67,0.0,0.0,65,0.00,,,0.00,WUHU21623XXSP,2013-01-26 23:18:00,
2013-01-26 18:23:00,70.5,58.2,29.63,ENE,67,0.0,0.0,65,0.00,,,0.00,WUHU21623XXSP,2013-01-26 23:23:00,
2013-01-26 18:28:00,70.3,58.0,29.63,ENE,67,0.0,0.0,65,0.00,,,0.00,WUHU21623XXSP,2013-01-26 23:28:00,
2013-01-26 18:33:00,70.2,58.2,29.63,ENE,67,0.0,0.0,66,0.00,,,0.00,WUHU21623XXSP,2013-01-26 23:33:00,
2013-01-26 18:38:00,70.2,58.2,29.63,ENE,67,0.0,0.0,66,0.00,,,0.00,WUHU21623XXSP,2013-01-26 23:38:00,
2013-01-26 18:43:00,70.0,58.0,29.63,ENE,67,0.0,0.0,66,0.00,,,0.00,WUHU21623XXSP,2013-01-26 23:43:00,
2013-01-26 18:48:00,70.0,58.0,29.63,ENE,67,0.0,0.0,66,0.00,,,0.00,WUHU21623XXSP,2013-01-26 23:48:00,
2013-01-26 18:53:00,69.6,58.1,29.64,ENE,67,0.0,0.0,67,0.00,,,0.00,WUHU21623XXSP,2013-01-26 23:53:00,
2013-01-26 18:58:00,69.6,58.1,29.64,ENE,67,0.0,0.0,67,0.00,,,0.00,WUHU21623XXSP,2013-01-26 23:58:00,
2013-01-26 19:03:00,69.4,58.0,29.64,ENE,67,0.0,0.0,67,0.00,,,0.00,WUHU21623XXSP,2013-01-27 00:03:00,
2013-01-26 19:08:00,69.3,58.2,29.64,ENE,67,0.0,0.0,68,0.00,,,0.00,WUHU21623XXSP,2013-01-27 00:08:00,
2013-01-26 19:13:00,69.3,58.2,29.63,ENE,67,0.0,0.0,68,0.00,,,0.00,WUHU21623XXSP,2013-01-27 00:13:00,
2013-01-26 19:18:00,68.9,57.9,29.63,ENE,67,0.0,0.0,68,0.00,,,0.00,WUHU21623XXSP,2013-01-27 00:18:00,
2013-01-26 19:23:00,68.9,58.3,29.63,ENE,67,0.0,0.0,69,0.00,,,0.00,WUHU21623XXSP,2013-01-27 00:23:00,
2013-01-26 19:28:00,68.7,58.1,29.63,ENE,67,0.0,0.0,69,0.00,,,0.00,WUHU21623XXSP,2013-01-27 00:28:00,
2013-01-26 19:33:00,68.7,58.1,29.64,ENE,67,0.0,0.0,69,0.00,,,0.00,WUHU21623XXSP,2013-01-27 00:33:00,
2013-01-26 19:38:00,68.5,58.4,29.64,ENE,67,0.0,0.0,70,0.00,,,0.00,WUHU21623XXSP,2013-01-27 00:38:00,
2013-01-26 19:43:00,68.5,58.0,29.64,ENE,67,0.0,0.0,69,0.00,,,0.00,WUHU21623XXSP,2013-01-27 00:43:00,
2013-01-26 19:48:00,68.5,58.4,29.64,ENE,67,0.0,0.0,70,0.00,,,0.00,WUHU21623XXSP,2013-01-27 00:48:00,
2013-01-26 19:53:00,68.4,58.2,29.64,ENE,67,0.0,0.0,70,0.00,,,0.00,WUHU21623XXSP,2013-01-27 00:53:00,
2013-01-26 19:58:00,68.2,58.1,29.64,ENE,67,0.0,0.0,70,0.00,,,0.00,WUHU21623XXSP,2013-01-27 00:58:00,
2013-01-26 20:03:00,68.2,58.1,29.64,ENE,67,0.0,0.0,70,0.00,,,0.00,WUHU21623XXSP,2013-01-27 01:03:00,
2013-01-26 20:08:00,67.8,58.1,29.64,ENE,67,0.0,0.0,71,0.00,,,0.00,WUHU21623XXSP,2013-01-27 01:08:00,
2013-01-26 20:13:00,67.8,58.1,29.64,ENE,67,0.0,0.0,71,0.00,,,0.00,WUHU21623XXSP,2013-01-27 01:13:00,
2013-01-26 20:18:00,67.6,57.9,29.64,ENE,67,0.0,0.0,71,0.00,,,0.00,WUHU21623XXSP,2013-01-27 01:18:00,
2013-01-26 20:23:00,67.6,58.3,29.64,ENE,67,0.0,0.0,72,0.00,,,0.00,WUHU21623XXSP,2013-01-27 01:23:00,
2013-01-26 20:28:00,67.3,58.0,29.65,ENE,67,0.0,0.0,72,0.00,,,0.00,WUHU21623XXSP,2013-01-27 01:28:00,
2013-01-26 20:33:00,67.3,58.0,29.64,ENE,67,0.0,0.0,72,0.00,,,0.00,WUHU21623XXSP,2013-01-27 01:33:00,
2013-01-26 20:38:00,67.1,57.8,29.64,ENE,67,0.0,0.0,72,0.00,,,0.00,WUHU21623XXSP,2013-01-27 01:38:00,
2013-01-26 20:43:00,66.9,57.6,29.64,ENE,67,0.0,0.0,72,0.00,,,0.00,WUHU21623XXSP,2013-01-27 01:43:00,
2013-01-26 20:48:00,66.7,57.8,29.64,ENE,67,0.0,0.0,73,0.00,,,0.00,WUHU21623XXSP,2013-01-27 01:48:00,
2013-01-26 20:53:00,66.7,57.8,29.64,ENE,67,0.0,0.0,73,0.00,,,0.00,WUHU21623XXSP,2013-01-27 01:53:00,
2013-01-26 20:58:00,66.7,58.2,29.64,ENE,67,0.0,0.0,74,0.00,,,0.00,WUHU21623XXSP,2013-01-27 01:58:00,
2013-01-26 21:03:00,66.7,58.2,29.64,ENE,67,0.0,0.0,74,0.00,,,0.00,WUHU21623XXSP,2013-01-27 02:03:00,
2013-01-26 21:08:00,66.6,58.0,29.65,ENE,67,0.0,0.0,74,0.00,,,0.00,WUHU21623XXSP,2013-01-27 02:08:00,
2013-01-26 21:13:00,66.4,58.2,29.65,ENE,67,0.0,0.0,75,0.00,,,0.00,WUHU21623XXSP,2013-01-27 02:13:00,
2013-01-26 21:18:00,66.4,57.8,29.65,ENE,67,0.0,0.0,74,0.00,,,0.00,WUHU21623XXSP,2013-01-27 02:18:00,
2013-01-26 21:23:00,66.2,58.0,29.65,ENE,67,0.0,0.0,75,0.00,,,0.00,WUHU21623XXSP,2013-01-27 02:23:00,
2013-01-26 21:28:00,66.0,57.8,29.65,ENE,67,0.0,0.0,75,0.00,,,0.00,WUHU21623XXSP,2013-01-27 02:28:00,
2013-01-26 21:33:00,66.0,57.5,29.65,ENE,67,0.0,0.0,74,0.00,,,0.00,WUHU21623XXSP,2013-01-27 02:33:00,
2013-01-26 21:38:00,65.8,57.7,29.65,ENE,67,0.0,0.0,75,0.00,,,0.00,WUHU21623XXSP,2013-01-27 02:38:00,
2013-01-26 21:43:00,65.8,57.7,29.65,ENE,67,0.0,0.0,75,0.00,,,0.00,WUHU21623XXSP,2013-01-27 02:43:00,
2013-01-26 21:48:00,65.5,57.7,29.65,ENE,67,0.0,0.0,76,0.00,,,0.00,WUHU21623XXSP,2013-01-27 02:48:00,
2013-01-26 21:53:00,65.5,57.7,29.65,ENE,67,0.0,0.0,76,0.00,,,0.00,WUHU21623XXSP,2013-01-27 02:53:00,
2013-01-26 21:58:00,65.5,57.7,29.66,ENE,67,0.0,0.0,76,0.00,,,0.00,WUHU21623XXSP,2013-01-27 02:58:00,
2013-01-26 22:03:00,65.1,57.7,29.66,ENE,67,0.0,0.0,77,0.00,,,0.00,WUHU21623XXSP,2013-01-27 03:03:00,
2013-01-26 22:08:00,65.3,57.9,29.66,ENE,67,0.0,0.0,77,0.00,,,0.00,WUHU21623XXSP,2013-01-27 03:08:00,
2013-01-26 22:13:00,65.1,57.7,29.66,ENE,67,0.0,0.0,77,0.00,,,0.00,WUHU21623XXSP,2013-01-27 03:13:00,
2013-01-26 22:18:00,64.9,57.9,29.66,ENE,67,0.0,0.0,78,0.00,,,0.00,WUHU21623XXSP,2013-01-27 03:18:00,
2013-01-26 22:23:00,64.9,57.9,29.66,ENE,67,0.0,0.0,78,0.00,,,0.00,WUHU21623XXSP,2013-01-27 03:23:00,
2013-01-26 22:28:00,64.9,57.5,29.66,ENE,67,0.0,0.0,77,0.00,,,0.00,WUHU21623XXSP,2013-01-27 03:28:00,
2013-01-26 22:33:00,64.8,57.4,29.66,ENE,67,0.0,0.0,77,0.00,,,0.00,WUHU21623XXSP,2013-01-27 03:33:00,
2013-01-26 22:38:00,64.9,57.5,29.66,ENE,67,0.0,0.0,77,0.00,,,0.00,WUHU21623XXSP,2013-01-27 03:38:00,
2013-01-26 22:43:00,64.8,57.7,29.66,ENE,67,0.0,0.0,78,0.00,,,0.00,WUHU21623XXSP,2013-01-27 03:43:00,
2013-01-26 22:48:00,64.6,57.5,29.66,ENE,67,0.0,0.0,78,0.00,,,0.00,WUHU21623XXSP,2013-01-27 03:48:00,
2013-01-26 22:53:00,64.6,57.5,29.66,ENE,67,0.0,0.0,78,0.00,,,0.00,WUHU21623XXSP,2013-01-27 03:53:00,
2013-01-26 22:58:00,64.6,57.5,29.66,ENE,67,0.0,0.0,78,0.00,,,0.00,WUHU21623XXSP,2013-01-27 03:58:00,
2013-01-26 23:03:00,64.2,57.6,29.66,ENE,67,0.0,0.0,79,0.00,,,0.00,WUHU21623XXSP,2013-01-27 04:03:00,
2013-01-26 23:08:00,64.2,57.6,29.66,ENE,67,0.0,0.0,79,0.00,,,0.00,WUHU21623XXSP,2013-01-27 04:08:00,
2013-01-26 23:13:00,64.2,57.6,29.66,ENE,67,0.0,0.0,79,0.00,,,0.00,WUHU21623XXSP,2013-01-27 04:13:00,
2013-01-26 23:18:00,64.2,57.2,29.66,ENE,67,0.0,0.0,78,0.00,,,0.00,WUHU21623XXSP,2013-01-27 04:18:00,
2013-01-26 23:23:00,64.0,57.4,29.66,ENE,67,0.0,0.0,79,0.00,,,0.00,WUHU21623XXSP,2013-01-27 04:23:00,
2013-01-26 23:28:00,64.0,57.4,29.66,ENE,67,0.0,0.0,79,0.00,,,0.00,WUHU21623XXSP,2013-01-27 04:28:00,
2013-01-26 23:33:00,64.0,57.4,29.66,ENE,67,0.0,0.0,79,0.00,,,0.00,WUHU21623XXSP,2013-01-27 04:33:00,
2013-01-26 23:38:00,64.0,57.4,29.66,ENE,67,0.0,0.0,79,0.00,,,0.00,WUHU21623XXSP,2013-01-27 04:38:00,
2013-01-26 23:43:00,64.0,57.4,29.66,ENE,67,0.0,0.0,79,0.00,,,0.00,WUHU21623XXSP,2013-01-27 04:43:00,
2013-01-26 23:48:00,64.0,57.7,29.66,ENE,67,0.0,0.0,80,0.00,,,0.00,WUHU21623XXSP,2013-01-27 04:48:00,
2013-01-26 23:53:00,63.9,57.6,29.66,ENE,67,0.0,0.0,80,0.00,,,0.00,WUHU21623XXSP,2013-01-27 04:53:00,
2013-01-26 23:58:00,63.7,57.4,29.66,ENE,67,0.0,0.0,80,0.00,,,0.00,WUHU21623XXSP,2013-01-27 04:58:00,